N5VIS Weather Reports


Display with metric or nautical units.
time (UTC)temp
F
wind
direction
speed
MPH
gust
MPH
rain 1hr
in
rain 24hr
in
rain mn
in
humidity
%
barometer
mb
20260505065824 59 12 0.0 0.0 0.00 0.00 0.00 82 1014.3
20260505065321 60 12 0.0 0.0 0.00 0.00 0.00 82 1014.5
20260505064819 60 12 0.0 0.0 0.00 0.00 0.00 81 1014.7
20260505064315 60 7 0.0 0.0 0.00 0.00 0.00 81 1014.8
20260505063814 60 1 0.0 0.0 0.00 0.00 0.00 80 1014.8
20260505063309 60 24 0.0 0.0 0.00 0.00 0.00 80 1014.8
20260505062806 61 23 0.0 0.0 0.00 0.00 0.00 80 1014.8
20260505062304 61 19 0.0 0.0 0.00 0.00 0.00 79 1014.9
20260505061800 61 18 0.0 0.0 0.00 0.00 0.00 78 1014.9
20260505061258 61 18 0.0 0.0 0.00 0.00 0.00 77 1015.0
20260505060755 62 18 0.0 0.0 0.00 0.00 0.00 76 1015.3
20260505060252 61 16 0.0 0.0 0.00 0.00 0.00 76 1015.2
20260505055747 62 16 0.0 0.0 0.00 0.00 0.00 76 1015.2
20260505055244 62 11 0.0 0.0 0.00 0.00 0.00 75 1015.3
20260505054742 62 10 0.0 0.0 0.00 0.00 0.00 76 1015.4
20260505054239 62 5 0.0 0.0 0.00 0.00 0.00 75 1015.5
20260505053737 62 358 0.0 0.0 0.00 0.00 0.00 75 1015.7
20260505053234 62 358 0.0 0.0 0.00 0.00 0.00 75 1015.5
20260505052731 62 41 0.0 0.0 0.00 0.00 0.00 75 1015.5
20260505052228 61 16 0.0 0.0 0.00 0.00 0.00 75 1015.6
20260505051725 61 15 0.0 0.0 0.00 0.00 0.00 76 1015.6
20260505051223 61 348 0.0 0.0 0.00 0.00 0.00 76 1015.5
20260505050720 62 345 0.0 0.0 0.00 0.00 0.00 75 1015.3
20260505050219 62 359 0.0 0.0 0.00 0.00 0.00 76 1015.5
20260505041648 62 40 0.0 0.0 0.00 0.00 0.00 74 1015.8
20260505041146 62 358 0.0 0.0 0.00 0.00 0.00 73 1015.7
20260505040643 62 26 0.0 0.0 0.00 0.00 0.00 73 1015.6
20260505040140 62 12 0.0 0.0 0.00 0.00 0.00 74 1015.6
20260505035636 63 12 0.0 0.0 0.00 0.00 0.00 73 1015.5
20260505035132 63 3 0.0 0.0 0.00 0.00 0.00 73 1015.4
20260505034629 62 19 0.0 0.0 0.00 0.00 0.00 73 1015.5
20260505034126 62 353 0.0 0.0 0.00 0.00 0.00 73 1015.5
20260505033622 62 358 0.0 0.0 0.00 0.00 0.00 73 1015.5
20260505033121 63 356 0.0 0.0 0.00 0.00 0.00 72 1015.6
20260505032619 63 34 0.0 0.0 0.00 0.00 0.00 72 1015.5
20260505032115 63 27 0.0 0.0 0.00 0.00 0.00 73 1015.7
20260505031612 63 15 0.0 0.0 0.00 0.00 0.00 73 1015.5
20260505031108 63 11 0.0 0.0 0.00 0.00 0.00 72 1015.5
20260505030605 63 354 0.0 0.0 0.00 0.00 0.00 71 1015.5
20260505025557 64 7 0.0 0.0 0.00 0.00 0.00 71 1015.9
20260505025056 64 7 0.0 0.0 0.00 0.00 0.00 70 1015.7
20260505024553 64 8 0.0 0.0 0.00 0.00 0.00 70 1015.6
20260505024050 65 8 0.0 0.0 0.00 0.00 0.00 69 1015.5
20260505023547 65 12 0.0 0.0 0.00 0.00 0.00 69 1015.5
20260505023045 65 40 0.0 0.0 0.00 0.00 0.00 69 1015.6
20260505022542 65 18 0.0 0.0 0.00 0.00 0.00 70 1015.5
20260505022039 65 353 0.0 0.0 0.00 0.00 0.00 70 1015.7
20260505021536 64 29 0.0 0.0 0.00 0.00 0.00 70 1015.5
20260505021033 64 22 0.0 0.0 0.00 0.00 0.00 69 1015.7
20260505020532 65 357 0.0 0.0 0.00 0.00 0.00 70 1015.6
20260505020030 65 356 0.0 0.0 0.00 0.00 0.00 68 1015.7
20260505015527 65 16 0.0 0.0 0.00 0.00 0.00 68 1015.5
20260505015023 65 20 0.0 0.0 0.00 0.00 0.00 67 1015.7
20260505014520 65 348 0.0 1.0 0.00 0.00 0.00 67 1015.9
20260505014018 65 1 0.0 0.0 0.00 0.00 0.00 66 1016.0
20260505013515 65 25 0.0 1.0 0.00 0.00 0.00 66 1016.1
20260505013012 66 1 0.0 0.0 0.00 0.00 0.00 66 1016.0
20260505012510 66 46 0.0 0.0 0.00 0.00 0.00 65 1015.9
20260505012007 65 298 0.0 0.0 0.00 0.00 0.00 65 1015.8
20260505011502 66 3 0.0 0.0 0.00 0.00 0.00 64 1015.9
20260505011000 66 43 0.0 0.0 0.00 0.00 0.00 63 1015.8
20260505010455 66 6 0.0 0.0 0.00 0.00 0.00 63 1015.9
20260505005951 66 329 0.0 0.0 0.00 0.00 0.00 63 1016.0
20260505005448 67 359 0.0 0.0 0.00 0.00 0.00 62 1016.0
20260505004946 67 356 0.0 0.0 0.00 0.00 0.00 61 1015.8
20260505004442 67 106 0.0 0.0 0.00 0.00 0.00 60 1016.0
20260505003939 68 163 0.0 1.0 0.00 0.00 0.00 59 1015.8
20260505003436 68 5 0.0 0.0 0.00 0.00 0.00 58 1015.7
20260505002932 68 142 1.0 1.0 0.00 0.00 0.00 59 1015.9
20260505002429 69 43 0.0 0.0 0.00 0.00 0.00 57 1015.7
20260505001927 69 56 0.0 0.0 0.00 0.00 0.00 56 1015.8
20260505001425 70 84 0.0 0.0 0.00 0.00 0.00 54 1015.9
20260505000922 70 86 0.0 1.0 0.00 0.00 0.00 54 1016.0
20260505000420 71 47 0.0 1.0 0.00 0.00 0.00 54 1015.9
20260504235916 71 106 0.0 1.0 0.00 0.00 0.00 52 1015.7
20260504235414 71 301 0.0 1.0 0.00 0.00 0.00 52 1015.8
20260504234909 72 141 4.0 4.0 0.00 0.00 0.00 50 1016.0
20260504234407 72 228 1.0 1.0 0.00 0.00 0.00 50 1016.0
20260504233903 73 138 0.0 1.0 0.00 0.00 0.00 49 1016.1
20260504233359 73 0 0.0 1.0 0.00 0.00 0.00 49 1016.1
20260504232856 73 321 0.0 1.0 0.00 0.00 0.00 49 1016.0
20260504232353 73 145 0.0 3.0 0.00 0.00 0.00 50 1016.0
20260504231850 73 17 0.0 1.0 0.00 0.00 0.00 50 1015.9
20260504231346 74 24 1.0 2.0 0.00 0.00 0.00 50 1016.1
20260504230843 74 3 1.0 1.0 0.00 0.00 0.00 48 1015.9
20260504230340 74 274 0.0 1.0 0.00 0.00 0.00 47 1016.1
20260504225839 74 155 0.0 2.0 0.00 0.00 0.00 47 1016.0
20260504225335 74 97 0.0 2.0 0.00 0.00 0.00 47 1016.0
20260504224833 75 65 2.0 2.0 0.00 0.00 0.00 47 1016.1
20260504224329 75 92 0.0 1.0 0.00 0.00 0.00 47 1016.2
20260504223826 75 21 0.0 4.0 0.00 0.00 0.00 47 1015.9
20260504223322 75 98 2.0 2.0 0.00 0.00 0.00 47 1015.9
20260504222818 75 125 1.0 2.0 0.00 0.00 0.00 47 1016.0
20260504222315 76 342 1.0 2.0 0.00 0.00 0.00 46 1016.3
20260504221814 75 6 1.0 2.0 0.00 0.00 0.00 48 1016.1
20260504221310 76 19 0.0 1.0 0.00 0.00 0.00 47 1016.1
20260504220807 76 169 2.0 2.0 0.00 0.00 0.00 45 1015.9
20260504220304 76 338 0.0 1.0 0.00 0.00 0.00 46 1016.1
20260504215801 76 156 0.0 2.0 0.00 0.00 0.00 46 1016.1
20260504215257 77 29 1.0 2.0 0.00 0.00 0.00 45 1016.0
20260504214753 77 260 0.0 2.0 0.00 0.00 0.00 46 1016.0
20260504214250 77 148 2.0 3.0 0.00 0.00 0.00 45 1016.0
20260504213747 77 11 0.0 4.0 0.00 0.00 0.00 45 1016.2
20260504213243 77 132 0.0 4.0 0.00 0.00 0.00 44 1016.3
20260504212740 0 0.0 0.0 0.00 0.00 0.00 1016.3
20260504212237 0 0.0 0.0 0.00 0.00 0.00 1016.2
20260504211734 0 0.0 0.0 0.00 0.00 0.00 1016.4
20260504211230 78 76 2.0 3.0 0.00 0.00 0.00 43 1016.3
20260504210728 78 76 2.0 3.0 0.00 0.00 0.00 43 1016.3
20260504210225 78 134 1.0 1.0 0.00 0.00 0.00 43 1016.3
20260504205722 0 0.0 0.0 0.00 0.00 0.00 1016.2
20260504205220 0 0.0 0.0 0.00 0.00 0.00 1016.5
20260504204718 0 0.0 0.0 0.00 0.00 0.00 1016.2
20260504204216 78 61 1.0 1.0 0.00 0.00 0.00 42 1016.2
20260504203715 78 61 1.0 1.0 0.00 0.00 0.00 42 1016.5
20260504203212 0 0.0 0.0 0.00 0.00 0.00 1016.3
20260504202711 0 0.0 0.0 0.00 0.00 0.00 1016.4
20260504202204 0 0.0 0.0 0.00 0.00 0.00 1016.7
20260504201701 0 0.0 0.0 0.00 0.00 0.00 1016.6
20260504201158 0 0.0 0.0 0.00 0.00 0.00 1016.3
20260504200656 0 0.0 0.0 0.00 0.00 0.00 1016.4
20260504200151 0 0.0 0.0 0.00 0.00 0.00 1016.9
20260504195647 0 0.0 0.0 0.00 0.00 0.00 1016.6
20260504195143 0 0.0 0.0 0.00 0.00 0.00 1016.7
20260504194641 0 0.0 0.0 0.00 0.00 0.00 1016.8
20260504194137 0 0.0 0.0 0.00 0.00 0.00 1017.0
20260504193633 79 69 1.0 1.0 0.00 0.00 0.00 43 1017.0
20260504193131 79 69 1.0 1.0 0.00 0.00 0.00 43 1017.0
20260504192629 0 0.0 0.0 0.00 0.00 0.00 1016.9
20260504192127 79 102 0.0 0.0 0.00 0.00 0.00 41 1017.2
20260504191625 79 102 0.0 0.0 0.00 0.00 0.00 41 1017.1
20260504191121 78 291 0.0 1.0 0.00 0.00 0.00 42 1017.2
20260504190617 78 291 0.0 1.0 0.00 0.00 0.00 42 1017.6
20260504190114 0 0.0 0.0 0.00 0.00 0.00 1017.5
20260504185610 0 0.0 0.0 0.00 0.00 0.00 1017.2
20260504185107 0 0.0 0.0 0.00 0.00 0.00 1017.5
20260504184603 0 0.0 0.0 0.00 0.00 0.00 1017.4
20260504184058 0 0.0 0.0 0.00 0.00 0.00 1017.4
20260504183556 0 0.0 0.0 0.00 0.00 0.00 1017.8
20260504183053 0 0.0 0.0 0.00 0.00 0.00 1017.8
20260504182550 0 0.0 0.0 0.00 0.00 0.00 1017.7
20260504182048 0 0.0 0.0 0.00 0.00 0.00 1017.8
20260504181544 78 276 1.0 1.0 0.00 0.00 0.00 39 1017.7
20260504181043 78 276 1.0 1.0 0.00 0.00 0.00 39 1017.9
20260504180541 0 0.0 0.0 0.00 0.00 0.00 1017.7
20260504180040 0 0.0 0.0 0.00 0.00 0.00 1017.7
20260504175537 0 0.0 0.0 0.00 0.00 0.00 1017.8
20260504175034 0 0.0 0.0 0.00 0.00 0.00 1017.8
20260504174531 0 0.0 0.0 0.00 0.00 0.00 1017.9
20260504174028 78 114 2.0 2.0 0.00 0.00 0.00 38 1017.8
20260504173525 78 114 2.0 2.0 0.00 0.00 0.00 38 1018.0
20260504173022 0 0.0 0.0 0.00 0.00 0.00 1018.2
20260504172518 0 0.0 0.0 0.00 0.00 0.00 1018.1
20260504172015 0 0.0 0.0 0.00 0.00 0.00 1018.1
20260504171512 0 0.0 0.0 0.00 0.00 0.00 1018.2
20260504171009 0 0.0 0.0 0.00 0.00 0.00 1018.3
20260504170504 0 0.0 0.0 0.00 0.00 0.00 1018.4
20260504160425 76 281 0.0 2.0 0.00 0.00 0.00 40 1018.7
20260504150848 74 145 0.0 1.0 0.00 0.00 0.00 55 1019.3
20260504150345 73 72 1.0 1.0 0.00 0.00 0.00 54 1019.0
20260504141315 70 282 1.0 2.0 0.00 0.00 0.00 57 1019.3
20260504140812 70 329 0.0 0.0 0.00 0.00 0.00 58 1019.2
20260504140307 70 270 2.0 3.0 0.00 0.00 0.00 58 1019.3
20260504130736 68 304 1.0 2.0 0.00 0.00 0.00 55 1018.9
20260504130232 67 315 0.0 0.0 0.00 0.00 0.00 55 1019.0
20260504120156 0 0.0 0.0 0.00 0.00 0.00 1018.5
20260504110623 53 17 0.0 0.0 0.00 0.00 0.00 97 1018.4
20260504110119 54 45 0.0 0.0 0.00 0.00 0.00 97 1018.1
20260504100545 55 49 0.0 0.0 0.00 0.00 0.00 96 1018.3
20260504081939 61 300 0.0 1.0 0.00 0.00 0.00 80 1018.6
20260504081436 62 268 0.0 0.0 0.00 0.00 0.00 82 1018.4
20260504080932 63 268 0.0 1.0 0.00 0.00 0.00 79 1018.7
20260504080429 63 2 0.0 0.0 0.00 0.00 0.00 77 1018.6
20260504070356 65 208 4.0 6.0 0.00 0.00 0.00 74 1018.9